Location: Alto Pass Reservoir
(37.5801°N, 89.3084°W)
Time: 01:16:33
(UTC+00:00)

NEOSSAT - Pass Details

Date: 26 September 2022
Orbit: 767 x 784 km, 98.4° (Epoch: 05 December)

Event Time Altitude Azimuth Distance (km) Brightness Sun altitude
Rises 01:10:38 0° 7° (N) 3,278 ? -16.8°
Reaches altitude 10° 01:13:00 10° 3° (N) 2,347 ? -17.3°
Maximum altitude 01:18:02 55° 287° (WNW) 944 ? -18.3°
Drops below altitude 10° 01:23:03 10° 211° (SSW) 2,335 ? -19.2°
Sets 01:25:24 0° 207° (SSW) 3,259 ? -19.7°
